TimeCST,TemperatureF,Dew PointF,Humidity,Sea Level PressureIn,VisibilityMPH,Wind Direction,Wind SpeedMPH,Gust SpeedMPH,PrecipitationIn,Events,Conditions,WindDirDegrees,DateUTC
12:42 AM,37.4,33.8,87,30.44,7.0,East,6.9,-,N/A,,Scattered Clouds,80,2012-12-31 06:42:00
1:42 AM,39.2,35.6,87,30.44,7.0,East,5.8,-,N/A,,Scattered Clouds,100,2012-12-31 07:42:00
2:45 AM,37.4,33.8,87,30.01,7.0,East,4.6,-,N/A,,Scattered Clouds,80,2012-12-31 08:45:00
3:45 AM,35.6,32.0,87,30.41,7.0,ENE,4.6,-,N/A,,Scattered Clouds,70,2012-12-31 09:45:00
4:45 AM,35.6,32.0,87,30.41,7.0,Calm,Calm,-,N/A,,Scattered Clouds,0,2012-12-31 10:45:00
5:45 AM,35.6,32.0,87,30.06,7.0,Calm,Calm,-,N/A,,Scattered Clouds,0,2012-12-31 11:45:00
6:45 AM,35.6,32.0,87,30.40,7.0,Calm,Calm,-,N/A,,Mostly Cloudy,0,2012-12-31 12:45:00
7:45 AM,35.6,32.0,87,30.41,7.0,Calm,Calm,-,N/A,,Mostly Cloudy,0,2012-12-31 13:45:00
8:45 AM,42.8,35.6,76,30.07,7.0,Calm,Calm,-,N/A,,Mostly Cloudy,0,2012-12-31 14:45:00
9:45 AM,51.8,41.0,67,30.46,7.0,Calm,Calm,-,N/A,,Mostly Cloudy,0,2012-12-31 15:45:00
10:45 AM,59.0,39.2,48,30.44,8.0,SSE,5.8,-,N/A,,Mostly Cloudy,150,2012-12-31 16:45:00
11:45 AM,64.4,37.4,37,29.96,7.0,South,20.7,-,N/A,,Mostly Cloudy,190,2012-12-31 17:45:00
12:45 PM,64.4,37.4,37,30.40,7.0,SSE,17.3,-,N/A,,Mostly Cloudy,160,2012-12-31 18:45:00
1:45 PM,64.4,35.6,34,30.38,7.0,South,19.6,-,N/A,,Mostly Cloudy,170,2012-12-31 19:45:00
2:45 PM,64.4,35.6,34,29.89,8.0,SSE,23.0,-,N/A,,Mostly Cloudy,150,2012-12-31 20:45:00
3:45 PM,66.2,37.4,35,30.34,8.0,SSE,21.9,-,N/A,,Mostly Cloudy,150,2012-12-31 21:45:00
4:45 PM,59.0,39.2,48,30.34,8.0,SSE,17.3,-,N/A,,Mostly Cloudy,160,2012-12-31 22:45:00
5:45 PM,57.2,39.2,51,29.96,8.0,SSE,15.0,-,N/A,,Overcast,150,2012-12-31 23:45:00
6:45 PM,53.6,39.2,58,30.34,8.0,SE,9.2,-,N/A,,Mostly Cloudy,140,2013-01-01 00:45:00
7:45 PM,51.8,39.2,62,30.35,7.0,SE,5.8,-,N/A,,Mostly Cloudy,130,2013-01-01 01:45:00
8:45 PM,48.2,39.2,71,30.02,7.0,SSE,4.6,-,N/A,,Mostly Cloudy,160,2013-01-01 02:45:00
9:45 PM,48.2,41.0,76,30.40,7.0,NW,3.5,-,N/A,,Mostly Cloudy,320,2013-01-01 03:45:00
10:45 PM,46.4,41.0,81,30.40,5.0,Calm,Calm,-,N/A,,Mostly Cloudy,0,2013-01-01 04:45:00
11:45 PM,44.6,39.2,81,29.88,2.0,Calm,Calm,-,N/A,,Haze,0,2013-01-01 05:45:00